User: anonymous   Login
Location: NJAA Observatory
(40.6819°N, 74.8979°W)
Time: 02:09:17
(UTC-05:00)
Language:

Cosmos 2263 Rocket - Orbit

View from above orbital plane
View from above orbital plane
View from above satellite
View from above satellite

Ground track
Ground track

The orbit data is extracted from the following two-line orbital elements,

1 22803U 93059B   17346.92365138 -.00000002 +00000-0 +22902-4 0  9991
2 22803 070.9905 232.7960 0015082 116.9361 243.3305 14.16787205253347
Epoch (UTC): 12 December 2017 22:10:03
Eccentricity: 0.0015082
inclination: 70.9905°
perigee height: 825 km
apogee height: 847 km
right ascension of ascending node: 232.7960°
argument of perigee: 116.9361°
revolutions per day: 14.16787205
mean anomaly at epoch: 243.3305°
orbit number at epoch: 25334

The dashed part of the orbit path shows where the satellite is in the earth's shadow,  

DLR